METEOR M2-4

导读 | 星芒AI

METEOR-M2-4 是俄罗斯研制的气象卫星,属于 METEOR-M 系列第二代,主要用于地球观测和气象预报。该卫星搭载多种遥感仪器,能够收集气象、海洋、水文和环境数据,支持天气预测、气候研究和自然灾害监测。2021年成功发射,运行在近地轨道,为俄罗斯及国际用户提供高分辨率的地球观测数据。

基本信息
目录编号:
59051
目录名称:
METEOR M2-4
国际标识:
2024-039A
轨道中心:
EARTH
卫星名称:
METEOR M2-4
卫星全名:
--
卫星状态:
在轨 (已飞行608 天)
发射日期:
2024-02-29 UTC
国别 :
俄罗斯(独联体) (CIS)
星等 :
--
轨道信息
数据来源 国际轨道数据
星历时间: 2025-10-29T00:26:43+0800
15小时前
查看轨道信息
半长轴: 7195.417km
偏心率: 0.0007996
轨道倾角: 98.669°
近地点辐角 115.531°
升交点赤经 259.317°
平近点角 244.669°
近地点: 811.528km
远地点: 823.036km
周期: 101.238分钟
每日圈数: 14.223905
详细信息
使用方式:
暂无
2D轨道图
3D轨道图
轨道高度分析图
轨道倾角分析图
轨道综合分析图
查看轨道综合分析图